Weather reports worldwide

Advertisment
Cap Corse, France (7785): temperature & dewpoint: 19.09.2018 08:00:00 - 25.09.2018 08:00:00 (CEST)Cap Corse, France (7785): wind speed & gusts: 19.09.2018 08:00:00 - 25.09.2018 08:00:00 (CEST)Cap Corse, France (7785): wind direction: 19.09.2018 08:00:00 - 25.09.2018 08:00:00 (CEST)Cap Corse, France (7785): reduced air pressure: 19.09.2018 08:00:00 - 25.09.2018 08:00:00 (CEST)Cap Corse, France (7785): visibility: 19.09.2018 08:00:00 - 25.09.2018 08:00:00 (CEST)Cap Corse, France (7785): precipitation: 19.09.2018 08:00:00 - 25.09.2018 08:00:00 (CEST)
Date & Time tt [°C] td [°C] ff [km/h] ff [kn] fx [km/h] fx [kn] dd ppp [hPa] vv [km] rr [mm]
25.09.2018 08:00:00 - - - - - - - - - -
25.09.2018 07:00:00 19,5 8,5 48 26 68 37 E 1024,5 - 0,0
25.09.2018 06:00:00 19,7 9,0 46 25 66 36 E 1024,2 - 0,0
25.09.2018 05:00:00 19,9 8,6 45 24 68 37 E 1023,9 12 0,0
25.09.2018 04:00:00 20,2 9,1 47 25 65 35 E 1023,3 - 0,0
25.09.2018 03:00:00 20,6 10,7 47 26 79 43 E 1023,0 - 0,0
25.09.2018 02:00:00 20,8 10,6 51 28 82 44 E 1022,2 - 0,0
25.09.2018 01:00:00 21,4 10,5 56 30 81 44 E 1021,2 - 0,0
25.09.2018 00:00:00 22,2 12,2 53 28 75 40 E 1020,3 - 0,0
24.09.2018 23:00:00 22,9 12,2 53 28 77 42 E 1019,7 - 0,0
24.09.2018 22:00:00 23,5 11,9 52 28 73 40 E 1019,1 - 0,0
24.09.2018 21:00:00 24,7 12,6 46 25 66 36 E 1018,4 - 0,0
24.09.2018 20:00:00 24,9 14,1 38 21 58 31 E 1017,2 - 0,0
24.09.2018 19:00:00 24,3 19,1 15 8 21 11 ENE 1016,2 - 0,0
24.09.2018 18:00:00 25,0 19,1 18 10 28 15 NE 1015,4 - 0,0
24.09.2018 17:00:00 25,6 19,9 21 12 35 19 E 1015,0 18 0,0
24.09.2018 16:00:00 26,9 19,3 22 12 39 21 E 1014,8 - 0,0
24.09.2018 15:00:00 27,8 17,3 9 5 14 7 WNW 1015,0 - 0,0
24.09.2018 14:00:00 26,4 15,7 9 5 34 19 W 1015,2 - 0,0
24.09.2018 13:00:00 27,8 16,4 18 10 62 34 SW 1014,9 - 0,0
24.09.2018 12:00:00 26,9 17,1 43 23 82 45 WSW 1013,6 - 0,0
24.09.2018 11:00:00 26,6 17,1 48 26 88 47 W 1013,1 18 0,0
24.09.2018 10:00:00 26,2 17,6 53 29 95 52 WSW 1012,2 - 0,0
24.09.2018 09:00:00 25,9 17,3 55 30 101 55 WSW 1011,5 - 0,0
24.09.2018 08:00:00 25,7 17,6 54 29 95 51 WSW 1011,1 18 0,0
24.09.2018 07:00:00 25,7 17,4 41 22 87 47 WSW 1011,4 - 0,0
24.09.2018 06:00:00 25,7 17,4 29 16 46 25 WSW 1011,7 - 0,0
24.09.2018 05:00:00 25,1 16,5 16 8 31 17 WSW 1012,1 12 0,0
24.09.2018 04:00:00 22,9 16,7 5 3 17 9 E 1012,5 - 0,0
24.09.2018 03:00:00 23,9 16,2 12 6 41 22 W 1013,6 - 0,0
24.09.2018 02:00:00 22,0 16,5 10 5 17 9 SSE 1014,1 - 0,0
24.09.2018 01:00:00 22,6 17,7 9 5 30 16 S 1014,3 - 0,0
24.09.2018 00:00:00 23,3 19,0 16 9 50 27 SW 1015,8 - 0,0
23.09.2018 23:00:00 23,2 18,7 16 9 30 16 WSW 1016,6 - 0,0
23.09.2018 22:00:00 22,8 18,6 11 6 24 13 SW 1016,4 - 0,0
23.09.2018 21:00:00 23,3 19,2 9 5 18 10 WSW 1017,1 - 0,0
23.09.2018 20:00:00 22,6 19,0 9 5 14 8 W 1017,3 12 0,0
23.09.2018 19:00:00 24,0 19,3 6 3 16 9 W 1017,0 - 0,0
23.09.2018 18:00:00 25,3 19,4 12 7 27 15 W 1017,1 - 0,0
23.09.2018 17:00:00 26,9 20,0 10 5 22 12 WNW 1017,4 15 0,0
23.09.2018 16:00:00 26,0 19,2 10 6 18 10 ENE 1017,9 - 0,0
23.09.2018 15:00:00 26,5 19,4 13 7 22 12 ENE 1018,3 - 0,0
23.09.2018 14:00:00 26,4 19,3 14 8 22 12 ENE 1018,7 15 0,0
23.09.2018 13:00:00 26,0 19,6 14 8 21 11 ENE 1019,2 - 0,0
23.09.2018 12:00:00 26,0 19,6 15 8 25 14 ENE 1019,5 - 0,0
23.09.2018 11:00:00 25,3 19,4 19 10 27 14 ENE 1019,3 - 0,0
23.09.2018 10:00:00 24,2 19,1 16 9 23 12 ENE 1019,0 - 0,0
23.09.2018 09:00:00 24,7 19,1 10 6 22 12 E 1018,7 - 0,0
23.09.2018 08:00:00 22,5 18,3 14 8 23 12 ESE 1018,5 12 0,0
23.09.2018 07:00:00 21,7 17,9 17 9 26 14 E 1018,1 - 0,0
23.09.2018 06:00:00 21,5 17,9 16 9 23 13 E 1018,1 - 0,0
23.09.2018 05:00:00 21,4 17,8 16 8 21 11 E 1018,2 12 0,0
23.09.2018 04:00:00 20,9 17,1 5 3 11 6 NNE 1018,5 - 0,0
23.09.2018 03:00:00 21,0 17,0 8 4 16 9 W 1018,7 - 0,0
23.09.2018 02:00:00 21,4 17,2 13 7 35 19 W 1019,0 - 0,0
23.09.2018 01:00:00 22,1 17,2 16 9 33 18 WSW 1018,9 - 0,0
23.09.2018 00:00:00 22,3 17,4 22 12 36 19 WSW 1018,8 - 0,0
22.09.2018 23:00:00 22,6 17,5 20 11 35 19 WSW 1019,0 - 0,0
22.09.2018 22:00:00 23,0 17,0 20 11 48 26 WSW 1018,7 - 0,0
22.09.2018 21:00:00 23,2 16,5 26 14 43 23 WSW 1018,3 - 0,0
22.09.2018 20:00:00 23,5 16,3 25 13 41 22 WSW 1017,6 - 0,0
22.09.2018 19:00:00 24,1 15,8 21 11 40 22 WSW 1017,0 - 0,0
22.09.2018 18:00:00 25,2 16,1 25 13 42 23 WSW 1017,0 - 0,0
22.09.2018 17:00:00 26,3 16,5 24 13 40 21 WSW 1016,6 15 0,0
22.09.2018 16:00:00 26,2 17,8 23 12 39 21 WSW 1016,6 - 0,0
22.09.2018 15:00:00 27,7 18,1 21 12 40 22 WSW 1016,5 - 0,0
22.09.2018 14:00:00 27,2 18,2 23 12 42 23 W 1017,1 15 0,0
22.09.2018 13:00:00 27,2 18,8 21 11 42 23 SW 1017,2 - 0,0
22.09.2018 12:00:00 28,6 18,4 12 6 19 10 WNW 1017,2 - 0,0
22.09.2018 11:00:00 28,3 16,2 7 4 32 18 WNW 1016,5 15 0,0
22.09.2018 10:00:00 27,4 16,4 18 10 36 19 SW 1016,0 - 0,0
22.09.2018 09:00:00 25,8 19,0 6 4 13 7 E 1016,1 - 0,0
22.09.2018 08:00:00 24,1 16,1 10 6 13 7 N 1016,2 - 0,0
22.09.2018 07:00:00 23,3 12,6 8 5 16 9 WNW 1015,0 - 0,0
22.09.2018 06:00:00 23,3 12,6 8 5 23 12 SW 1014,7 - 0,0
22.09.2018 05:00:00 24,1 12,7 9 5 29 16 WSW 1015,3 12 0,0
22.09.2018 04:00:00 24,2 12,8 8 4 34 18 SW 1015,2 - 0,0
22.09.2018 03:00:00 25,4 14,2 18 10 45 24 SW 1015,4 - 0,0
22.09.2018 02:00:00 25,2 14,3 22 12 50 27 SW 1015,6 - 0,0
22.09.2018 01:00:00 23,1 14,9 13 7 34 19 SW 1016,2 - 0,0
22.09.2018 00:00:00 24,1 15,6 15 8 40 21 SW 1016,1 - 0,0
21.09.2018 23:00:00 23,4 19,8 29 16 42 23 SSW 1016,2 - 0,0
21.09.2018 22:00:00 24,0 20,3 20 11 40 22 WSW 1016,5 - 0,0
21.09.2018 21:00:00 24,0 20,5 22 12 37 20 WSW 1016,2 - 0,0
21.09.2018 20:00:00 25,0 18,4 14 8 29 16 S 1015,2 - 0,0
21.09.2018 19:00:00 25,8 13,6 16 9 24 13 SE 1014,9 - 0,0
21.09.2018 18:00:00 27,3 15,3 15 8 27 15 E 1014,9 - 0,0
21.09.2018 17:00:00 27,1 17,8 13 7 16 9 ENE 1015,1 15 0,0
21.09.2018 16:00:00 27,9 18,9 12 6 17 9 ENE 1015,5 - 0,0
21.09.2018 15:00:00 27,6 19,1 14 7 25 13 E 1015,4 - 0,0
21.09.2018 14:00:00 28,0 19,5 17 9 29 16 E 1015,6 15 0,0
21.09.2018 13:00:00 27,6 20,2 19 10 27 15 E 1015,9 - 0,0
21.09.2018 12:00:00 26,2 20,1 16 9 23 12 E 1016,0 - 0,0
21.09.2018 11:00:00 26,3 19,9 9 5 15 8 ENE 1016,3 15 0,0
21.09.2018 10:00:00 26,2 18,3 8 4 13 7 ENE 1016,0 - 0,0
21.09.2018 09:00:00 26,1 16,9 4 2 8 4 NE 1015,8 - 0,0
21.09.2018 08:00:00 22,9 15,0 3 1 5 3 SW 1016,0 15 0,0
21.09.2018 07:00:00 22,1 13,4 3 2 16 9 ESE 1015,6 - 0,0
21.09.2018 06:00:00 22,4 14,5 10 6 18 10 E 1015,5 - 0,0
21.09.2018 05:00:00 22,5 17,0 10 6 13 7 E 1015,8 15 0,0
21.09.2018 04:00:00 22,3 14,4 5 3 7 4 E 1016,0 - 0,0
21.09.2018 03:00:00 22,5 14,6 3 2 9 5 NE 1016,2 - 0,0
21.09.2018 02:00:00 23,2 13,4 4 2 8 5 W 1016,3 - 0,0
21.09.2018 01:00:00 25,0 15,3 3 2 24 13 SSE 1016,5 - 0,0
21.09.2018 00:00:00 25,1 13,6 19 10 27 15 ESE 1016,6 - 0,0
20.09.2018 23:00:00 25,4 14,2 19 10 31 17 ESE 1016,8 - 0,0
20.09.2018 22:00:00 24,5 14,9 16 8 23 13 ESE 1016,8 - 0,0
20.09.2018 21:00:00 23,4 16,7 12 7 23 12 E 1016,8 - 0,0
20.09.2018 20:00:00 23,1 17,6 14 7 19 10 ESE 1016,4 - 0,0
20.09.2018 19:00:00 24,4 18,6 10 6 18 10 E 1016,5 - 0,0
20.09.2018 18:00:00 25,7 19,3 13 7 22 12 NE 1016,6 - 0,0
20.09.2018 17:00:00 26,2 18,6 16 9 23 13 ENE 1016,6 15 0,0
20.09.2018 16:00:00 26,6 18,5 17 9 27 14 E 1016,8 - 0,0
20.09.2018 15:00:00 26,9 17,4 21 11 30 16 E 1017,2 - 0,0
20.09.2018 14:00:00 27,2 16,2 21 11 40 22 E 1017,6 15 0,0
20.09.2018 13:00:00 27,2 16,8 24 13 38 21 E 1017,8 - 0,0
20.09.2018 12:00:00 26,5 17,6 24 13 35 19 E 1018,2 - 0,0
20.09.2018 11:00:00 26,4 19,3 21 11 34 18 E 1018,6 - 0,0
20.09.2018 10:00:00 25,9 19,3 18 10 31 17 E 1018,5 - 0,0
20.09.2018 09:00:00 25,0 18,9 19 11 29 16 E 1018,3 - 0,0
20.09.2018 08:00:00 23,1 21,2 10 5 15 8 E 1018,2 15 0,0
20.09.2018 07:00:00 22,5 20,8 6 3 9 5 E 1018,1 - 0,0
20.09.2018 06:00:00 22,2 20,1 3 2 6 3 WNW 1018,2 - 0,0
20.09.2018 05:00:00 22,3 20,0 0 0 9 5 N 1018,1 12 0,0
20.09.2018 04:00:00 22,3 19,7 8 4 17 9 E 1018,3 - 0,0
20.09.2018 03:00:00 22,6 18,8 8 4 18 10 E 1018,5 - 0,0
20.09.2018 02:00:00 22,2 17,8 13 7 23 12 E 1018,8 - 0,0
20.09.2018 01:00:00 22,8 19,2 19 10 27 15 ESE 1019,0 - 0,0
20.09.2018 00:00:00 22,8 19,4 17 9 28 15 ESE 1019,1 - 0,0
19.09.2018 23:00:00 23,2 19,4 21 11 33 18 ESE 1019,1 - 0,0
19.09.2018 22:00:00 23,2 17,6 19 11 35 19 ESE 1018,8 - 0,0
19.09.2018 21:00:00 22,7 18,0 21 11 31 17 ESE 1018,6 - 0,0
19.09.2018 20:00:00 23,0 19,0 19 11 30 16 ESE 1018,2 - 0,0
19.09.2018 19:00:00 24,1 19,0 16 9 31 17 ESE 1017,8 - 0,0
19.09.2018 18:00:00 24,6 19,9 19 11 28 15 E 1017,8 - 0,0
19.09.2018 17:00:00 25,1 19,7 19 11 28 15 E 1017,8 15 0,0
19.09.2018 16:00:00 25,4 19,8 20 11 32 17 E 1018,1 - 0,0
19.09.2018 15:00:00 26,0 19,4 21 12 32 17 E 1018,3 - 0,0
19.09.2018 14:00:00 25,7 19,6 21 11 36 19 E 1018,8 15 0,0
19.09.2018 13:00:00 25,9 19,5 24 13 41 22 E 1018,9 - 0,0
19.09.2018 12:00:00 27,1 18,9 16 8 35 19 E 1019,0 - 0,0
19.09.2018 11:00:00 26,1 18,2 18 10 36 19 ESE 1018,9 - 0,0
19.09.2018 10:00:00 24,7 19,1 21 11 36 20 ESE 1018,7 - 0,0
19.09.2018 09:00:00 23,3 18,8 16 9 31 17 ESE 1018,4 - 0,0
19.09.2018 08:00:00 22,6 19,2 18 10 45 24 SE 1018,7 - 0,0

tt = temperature
td = dewpoint
ff = wind speed
fx = gusts
dd = wind direction
ppp = reduced air pressure
vv = visibility
rr = precipitation

Next stations